星链-1256 (STARLINK-1256 )

导读

STARLINK-1256是美国SpaceX星链项目中的一颗低轨通信卫星,于2020年3月18日发射入轨,属于星链早期组网卫星。它运行在近地轨道,依托Ku/Ka频段通信技术,具备自动避撞能力,服务于全球卫星互联网组网,为偏远地区、特殊场景提供低延迟高速宽带接入,是星链构建全球覆盖卫星通信网络的早期组成部分,支撑星链从早期部署逐步迈向全球化服务。

基本信息
目录编号:
45401
目录名称:
STARLINK-1256
国际标识:
2020-019AT
轨道中心:
EARTH
卫星名称:
星链-1256
卫星全名:
星链-1256 (STARLINK-1256 )
卫星状态:
已陨落 最后检测时间 2025-06-18
发射日期:
2020-03-18 UTC
国别 :
美国 (US)
星等 :
--
该卫星已列入 空间交会检测服务 Space Conjunction Data Service (SCDS) ,当前飞行风险评估等级: 无高风险
轨道信息
数据来源 国际轨道数据
星历时间: 2025-06-18T20:56:45+0800
轨道信息已过期452天
半长轴: 6516.709km
偏心率: 0.0006482
轨道倾角: 53.023°
近地点辐角 239.664°
升交点赤经 161.687°
平近点角 218.749°
近地点: 134.349km
远地点: 142.799km
周期: 87.257分钟
每日圈数: 16.502902
详细信息
固有亮度:
5
最大亮度:
2.5
卫星平台:
Starlink V1.0
覆盖范围:
全球
运营商:
太空探索技术公司
运营商所在国:
美国
制造商(研发单位):
太空探索技术公司
制造商所在国:
美国
使用方式:
暂无
卫星简介
星链(Starlink)计划是由太空探索技术公司(SpaceX)提出的一个巨型低轨卫星互联网星座项目,计划在2019年至2024年间在太空搭建由约1.2万颗卫星组成的“星链”网络,其中1584颗将部署在地球上空550千米处的近地轨道,并从2020年开始工作。该卫星仍在工作。
与全量物体交会距离演化趋势
与全量物体交会风险概率演化趋势